Location: Newark
(51.2625°N, 13.3939°E)
Time: 17:00:52
(UTC+00:00)

deb Explorer IX - Pass Details

Date: 26 November 2019
Orbit: 545 x 1105 km, 38.8° (Epoch: 05 December)

Event Time Altitude Azimuth Distance (km) Brightness Sun altitude
Rises 01:24:49 0° 260° (W) 3,772 - -47.7°
Reaches altitude 10° 01:28:24 10° 245° (WSW) 2,731 - -47.2°
Maximum altitude 01:32:50 19° 202° (SSW) 2,015 - -46.6°
Drops below altitude 10° 01:36:53 10° 159° (SSE) 2,460 - -46.1°
Sets 01:39:55 0° 141° (SE) 3,280 - -45.6°
